| time (UTC) | temp F | wind direction | speed MPH | gust MPH | rain 1hr in | rain 24hr in | rain mn in | humidity % | barometer mb |
| 20260504023018 | 66 | 350 | 1.0 | 4.0 | 0.01 | 0.01 | 0.02 | 90 | 1015.7 |
| 20260504022017 | 66 | 297 | 2.0 | 3.0 | 0.01 | 0.01 | 0.02 | 89 | 1016.0 |
| 20260504021016 | 66 | 287 | 0.0 | 1.0 | 0.01 | 0.01 | 0.02 | 89 | 1016.0 |
| 20260504020014 | 66 | 287 | 0.0 | 3.0 | 0.00 | 0.00 | 0.01 | 88 | 1016.4 |
| 20260504015012 | 67 | 287 | 0.0 | 5.0 | 0.00 | 0.00 | 0.01 | 88 | 1016.4 |
| 20260504014011 | 67 | 249 | 0.0 | 5.0 | 0.00 | 0.00 | 0.01 | 87 | 1016.7 |
| 20260504013010 | 67 | 237 | 0.0 | 0.0 | 0.00 | 0.00 | 0.00 | 86 | 1016.7 |
| 20260504011937 | 67 | 237 | 0.0 | 0.0 | 0.00 | 0.00 | 0.00 | 85 | 1017.0 |
| 20260504010936 | 67 | 237 | 0.0 | 0.0 | 0.00 | 0.00 | 0.00 | 85 | 1017.0 |
| 20260504005903 | 67 | 237 | 0.0 | 1.0 | 0.00 | 0.00 | 0.00 | 86 | 1016.7 |
| 20260504004902 | 66 | 237 | 0.0 | 2.0 | 0.00 | 0.00 | 0.00 | 86 | 1016.7 |
| 20260504003900 | 66 | 237 | 1.0 | 2.0 | 0.00 | 0.00 | 0.00 | 86 | 1016.7 |
| 20260504002756 | 66 | 237 | 1.0 | 1.0 | 0.00 | 0.00 | 0.00 | 87 | 1016.7 |
| 20260504001724 | 65 | 237 | 1.0 | 2.0 | 0.00 | 0.00 | 0.00 | 87 | 1016.7 |
| 20260504000722 | 65 | 237 | 0.0 | 2.0 | 0.00 | 0.00 | 0.00 | 87 | 1016.7 |
| 20260503235721 | 66 | 237 | 0.0 | 2.0 | 0.00 | 0.00 | 0.00 | 88 | 1016.7 |
| 20260503234719 | 66 | 237 | 0.0 | 3.0 | 0.00 | 0.00 | 0.00 | 87 | 1017.0 |
| 20260503233646 | 66 | 238 | 0.0 | 3.0 | 0.00 | 0.00 | 0.00 | 87 | 1017.0 |
| 20260503232645 | 67 | 281 | 1.0 | 1.0 | 0.00 | 0.00 | 0.00 | 87 | 1017.4 |
| 20260503231643 | 67 | 288 | 0.0 | 1.0 | 0.00 | 0.00 | 0.00 | 88 | 1017.4 |
| 20260503230641 | 67 | 288 | 0.0 | 1.0 | 0.00 | 0.00 | 0.00 | 87 | 1017.0 |
| 20260503225640 | 67 | 288 | 0.0 | 1.0 | 0.00 | 0.00 | 0.00 | 87 | 1017.0 |
| 20260503224638 | 66 | 288 | 0.0 | 1.0 | 0.00 | 0.00 | 0.00 | 88 | 1016.7 |
| 20260503223637 | 66 | 288 | 0.0 | 1.0 | 0.00 | 0.00 | 0.00 | 88 | 1016.4 |
| 20260503222635 | 66 | 288 | 0.0 | 1.0 | 0.00 | 0.00 | 0.00 | 89 | 1016.4 |
| 20260503221602 | 66 | 288 | 0.0 | 1.0 | 0.00 | 0.00 | 0.00 | 89 | 1016.0 |
| 20260503220600 | 65 | 288 | 0.0 | 3.0 | 0.00 | 0.00 | 0.00 | 89 | 1016.0 |
| 20260503215558 | 65 | 288 | 0.0 | 3.0 | 0.00 | 0.00 | 0.00 | 90 | 1016.0 |
| 20260503214525 | 65 | 287 | 2.0 | 3.0 | 0.00 | 0.00 | 0.00 | 91 | 1016.0 |
| 20260503213524 | 64 | 279 | 2.0 | 3.0 | 0.00 | 0.00 | 0.00 | 92 | 1016.4 |
| 20260503212523 | 64 | 351 | 0.0 | 0.0 | 0.00 | 0.00 | 0.00 | 94 | 1016.0 |
| 20260503211450 | 63 | 350 | 0.0 | 0.0 | 0.00 | 0.00 | 0.00 | 94 | 1016.0 |
| 20260503210449 | 63 | 350 | 0.0 | 0.0 | 0.00 | 0.00 | 0.00 | 94 | 1015.7 |
| 20260503205417 | 62 | 351 | 0.0 | 2.0 | 0.00 | 0.00 | 0.00 | 93 | 1015.7 |
| 20260503204343 | 62 | 350 | 0.0 | 3.0 | 0.00 | 0.00 | 0.00 | 93 | 1015.7 |
| 20260503203310 | 62 | 351 | 1.0 | 4.0 | 0.00 | 0.00 | 0.00 | 93 | 1015.7 |
| 20260503202309 | 62 | 351 | 0.0 | 1.0 | 0.00 | 0.00 | 0.00 | 93 | 1015.3 |
| 20260503201307 | 62 | 351 | 0.0 | 1.0 | 0.00 | 0.00 | 0.00 | 93 | 1015.3 |
| 20260503200306 | 62 | 351 | 0.0 | 1.0 | 0.00 | 0.00 | 0.00 | 93 | 1015.0 |
| 20260503195305 | 62 | 351 | 0.0 | 1.0 | 0.00 | 0.00 | 0.00 | 93 | 1015.0 |
| 20260503194304 | 62 | 351 | 0.0 | 1.0 | 0.00 | 0.00 | 0.00 | 93 | 1015.0 |
| 20260503193303 | 62 | 351 | 0.0 | 1.0 | 0.00 | 0.00 | 0.00 | 93 | 1015.0 |
| 20260503192301 | 62 | 351 | 0.0 | 2.0 | 0.00 | 0.00 | 0.00 | 93 | 1015.0 |
| 20260503191259 | 62 | 351 | 0.0 | 2.0 | 0.00 | 0.00 | 0.00 | 93 | 1015.0 |
| 20260503190258 | 62 | 351 | 0.0 | 2.0 | 0.00 | 0.00 | 0.00 | 93 | 1015.0 |
| 20260503185257 | 62 | 351 | 0.0 | 2.0 | 0.00 | 0.00 | 0.00 | 93 | 1015.0 |
| 20260503184223 | 62 | 351 | 0.0 | 1.0 | 0.00 | 0.00 | 0.00 | 93 | 1015.0 |
| 20260503183221 | 62 | 351 | 0.0 | 1.0 | 0.00 | 0.00 | 0.00 | 92 | 1015.0 |
| 20260503182220 | 62 | 351 | 0.0 | 1.0 | 0.00 | 0.00 | 0.00 | 92 | 1015.0 |
| 20260503181219 | 62 | 351 | 0.0 | 1.0 | 0.00 | 0.00 | 0.00 | 91 | 1015.0 |
| 20260503180146 | 63 | 351 | 0.0 | 1.0 | 0.00 | 0.00 | 0.00 | 91 | 1015.0 |
| 20260503175114 | 63 | 351 | 0.0 | 2.0 | 0.00 | 0.00 | 0.00 | 91 | 1015.0 |
| 20260503174113 | 63 | 351 | 0.0 | 2.0 | 0.00 | 0.00 | 0.00 | 91 | 1015.0 |
| 20260503173110 | 63 | 351 | 1.0 | 2.0 | 0.00 | 0.00 | 0.00 | 91 | 1015.0 |
| 20260503172109 | 63 | 351 | 0.0 | 2.0 | 0.00 | 0.00 | 0.00 | 92 | 1015.4 |
| 20260503171036 | 63 | 351 | 0.0 | 1.0 | 0.00 | 0.00 | 0.00 | 92 | 1015.4 |
| 20260503150845 | 65 | 351 | 0.0 | 1.0 | 0.00 | 0.00 | 0.00 | 89 | 1016.4 |
| 20260503130725 | 68 | 352 | 1.0 | 4.0 | 0.00 | 0.00 | 0.00 | 84 | 1017.4 |
| 20260503110502 | 69 | 343 | 4.0 | 11.0 | 0.00 | 0.00 | 0.00 | 83 | 1017.7 |
| 20260503090310 | 71 | 348 | 5.0 | 18.0 | 0.00 | 0.00 | 0.00 | 78 | 1017.4 |
| 20260503081129 | 71 | 5 | 7.0 | 15.0 | 0.00 | 0.00 | 0.00 | 74 | 1017.0 |
| 20260503071948 | 72 | 27 | 7.0 | 14.0 | 0.00 | 0.00 | 0.00 | 72 | 1017.0 |
| 20260503070946 | 72 | 16 | 5.0 | 14.0 | 0.00 | 0.00 | 0.00 | 73 | 1017.0 |
| 20260503054934 | 74 | 5 | 7.0 | 17.0 | 0.00 | 0.00 | 0.00 | 71 | 1017.4 |
| 20260503053901 | 74 | 13 | 7.0 | 17.0 | 0.00 | 0.00 | 0.00 | 70 | 1017.4 |
| 20260503052829 | 74 | 20 | 8.0 | 17.0 | 0.00 | 0.00 | 0.00 | 70 | 1017.4 |
| 20260503051827 | 74 | 344 | 6.0 | 21.0 | 0.00 | 0.00 | 0.00 | 69 | 1017.4 |
| 20260503050723 | 74 | 37 | 6.0 | 21.0 | 0.00 | 0.00 | 0.00 | 69 | 1017.7 |
| 20260503045722 | 74 | 23 | 7.0 | 17.0 | 0.00 | 0.00 | 0.00 | 69 | 1017.7 |
| 20260503044720 | 75 | 6 | 8.0 | 16.0 | 0.00 | 0.00 | 0.00 | 68 | 1017.7 |
| 20260503043718 | 75 | 35 | 6.0 | 14.0 | 0.00 | 0.00 | 0.00 | 68 | 1017.7 |
| 20260503042715 | 75 | 42 | 4.0 | 11.0 | 0.00 | 0.00 | 0.00 | 66 | 1017.7 |
| 20260503041714 | 75 | 359 | 5.0 | 11.0 | 0.00 | 0.00 | 0.00 | 67 | 1017.7 |
| 20260503040712 | 75 | 8 | 3.0 | 12.0 | 0.00 | 0.00 | 0.00 | 66 | 1018.1 |
| 20260503035710 | 76 | 2 | 5.0 | 12.0 | 0.00 | 0.00 | 0.00 | 64 | 1018.1 |
| 20260503034709 | 76 | 13 | 4.0 | 10.0 | 0.00 | 0.00 | 0.00 | 64 | 1018.1 |
| 20260503033707 | 76 | 36 | 6.0 | 10.0 | 0.00 | 0.00 | 0.00 | 63 | 1018.1 |
| 20260503032706 | 76 | 5 | 4.0 | 10.0 | 0.00 | 0.00 | 0.00 | 61 | 1018.4 |
| 20260503031704 | 76 | 4 | 3.0 | 14.0 | 0.00 | 0.00 | 0.00 | 61 | 1018.4 |
| 20260503030702 | 77 | 9 | 3.0 | 14.0 | 0.00 | 0.00 | 0.00 | 60 | 1018.8 |
| 20260503025700 | 77 | 13 | 5.0 | 14.0 | 0.00 | 0.00 | 0.00 | 56 | 1018.8 |
| 20260503024659 | 76 | 356 | 3.0 | 14.0 | 0.00 | 0.00 | 0.00 | 58 | 1019.1 |